Change the Weather History Date:

Monday, August 19, 2013

  Actual Average Record
Temperature  
Mean Temperature 73 °F -  
Max Temperature 84 °F 86 °F 90 °F (2010)
Min Temperature 63 °F 65 °F 57 °F (2012)
Cooling Degree Days 8    
Growing Degree Days 23 (Base 50)    
Moisture  
Dew Point 62 °F    
Average Humidity 69    
Maximum Humidity 87    
Minimum Humidity 47    
Precipitation  
Precipitation 0.00 in - - ()
Sea Level Pressure  
Sea Level Pressure 30.09 in    
Wind  
Wind Speed 3 mph (SSW)    
Max Wind Speed 12 mph    
Max Gust Speed -    
Visibility 10 miles    
Events      
Averages and records for this station are not official NWS values.
T = Trace of Precipitation, MM = Missing Value Source: NWS Daily Summary

Daily Weather History Graph

Daily Weather History Graph

Search for Another Location

Airport or City:

Trip Planner

Search our weather history database for the weather conditions in past years. The results will help you decide how hot, cold, wet, or windy it might be!

Date:

Astronomy

Aug. 19, 2013 Rise Set
Actual Time 6:10 AM CDT 7:47 PM CDT
Civil Twilight 5:41 AM CDT 8:15 PM CDT
Nautical Twilight 5:06 AM CDT 8:50 PM CDT
Astronomical Twilight 4:29 AM CDT 9:27 PM CDT
Moon 6:38 PM CDT (8/19) 4:29 AM CDT (8/19)
Length of Visible Light 14h 34m
Length of Day
13h 36m
Waxing Gibbous, 97% of the Moon is Illuminated
Aug 19
Waxing Gibbous
Aug 20
Full
Aug 28
Last Quarter
Sep 5
New
Sep 12
First Quarter

Hourly Weather History & Observations

Time (CDT) Temp. Heat Index Dew Point Humidity Pressure Visibility Wind Dir Wind Speed Gust Speed Precip Events Conditions
12:56 AM 66.9 °F - 59.9 °F 78% 30.11 in 10.0 mi Calm Calm - N/A   Clear
1:56 AM 64.9 °F - 59.9 °F 84% 30.11 in 10.0 mi Calm Calm - N/A   Clear
2:56 AM 63.9 °F - 59.0 °F 84% 30.10 in 10.0 mi Calm Calm - N/A   Clear
3:56 AM 63.9 °F - 59.9 °F 87% 30.10 in 10.0 mi Calm Calm - N/A   Clear
4:56 AM 63.0 °F - 59.0 °F 87% 30.11 in 10.0 mi South 3.5 mph - N/A   Clear
5:56 AM 63.0 °F - 57.9 °F 84% 30.12 in 10.0 mi Calm Calm - N/A   Clear
6:56 AM 63.9 °F - 57.9 °F 81% 30.13 in 10.0 mi Calm Calm - N/A   Clear
7:56 AM 70.0 °F - 61.0 °F 73% 30.14 in 10.0 mi Calm Calm - N/A   Clear
8:56 AM 73.9 °F - 61.9 °F 66% 30.13 in 10.0 mi Variable 3.5 mph - N/A   Clear
9:56 AM 77.9 °F - 61.9 °F 58% 30.13 in 10.0 mi Calm Calm - N/A   Clear
10:56 AM 79.0 °F - 63.0 °F 58% 30.12 in 10.0 mi Variable 3.5 mph - N/A   Scattered Clouds
11:56 AM 81.0 °F 82.5 °F 63.9 °F 56% 30.12 in 10.0 mi SSW 6.9 mph - N/A   Scattered Clouds
12:56 PM 82.9 °F 83.7 °F 61.9 °F 49% 30.10 in 10.0 mi South 10.4 mph - N/A   Scattered Clouds
1:56 PM 82.9 °F 83.3 °F 61.0 °F 47% 30.10 in 10.0 mi South 10.4 mph - N/A   Scattered Clouds
2:56 PM 83.8 °F 84.3 °F 61.9 °F 47% 30.09 in 10.0 mi SSW 11.5 mph - 0.00 in   Scattered Clouds
3:56 PM 83.8 °F 84.3 °F 61.9 °F 47% 30.07 in 10.0 mi SSW 10.4 mph - N/A   Scattered Clouds
4:56 PM 82.9 °F 84.0 °F 63.0 °F 51% 30.06 in 10.0 mi Variable 6.9 mph - N/A   Clear
5:56 PM 81.9 °F 83.1 °F 63.0 °F 53% 30.05 in 10.0 mi SW 6.9 mph - N/A   Partly Cloudy
6:56 PM 79.0 °F - 65.8 °F 64% 30.05 in 10.0 mi South 6.9 mph - N/A   Clear
7:56 PM 75.9 °F - 64.9 °F 69% 30.05 in 10.0 mi SW 4.6 mph - N/A   Clear
8:56 PM 73.9 °F - 64.9 °F 73% 30.06 in 10.0 mi SSW 4.6 mph - N/A   Clear
9:56 PM 72.0 °F - 64.9 °F 78% 30.07 in 10.0 mi South 3.5 mph - N/A   Clear
10:56 PM 70.0 °F - 64.9 °F 84% 30.07 in 10.0 mi South 5.8 mph - N/A   Clear
11:56 PM 68.0 °F - 63.9 °F 87% 30.07 in 10.0 mi SSE 8.1 mph - N/A   Clear